EW0531 Weather Reports


Display with metric or nautical units.
time (UTC)temp
F
wind
direction
speed
MPH
gust
MPH
rain 1hr
in
rain 24hr
in
rain mn
in
humidity
%
barometer
mb
20260507004037 48 30 2.0 5.0 0.00 0.03 0.00 72 1015.0
20260507003537 48 0 2.0 5.0 0.00 0.03 0.00 72 1014.9
20260507003052 49 42 1.0 4.0 0.00 0.03 0.00 72 1014.9
20260507002537 49 42 1.0 4.0 0.00 0.03 0.00 72 1014.9
20260507002037 49 42 1.0 4.0 0.00 0.03 0.00 72 1015.0
20260507001554 49 42 1.0 3.0 0.00 0.03 0.00 72 1015.0
20260507001037 49 42 1.0 3.0 0.00 0.03 0.00 72 1015.0
20260507000538 49 42 1.0 3.0 0.00 0.03 0.00 72 1015.0
20260507000057 49 0 0.0 3.0 0.00 0.03 0.00 71 1015.0
20260506235537 50 42 0.0 2.0 0.00 0.03 0.00 71 1014.9
20260506235037 50 0 0.0 3.0 0.00 0.03 0.00 71 1015.0
20260506234547 50 0 1.0 3.0 0.00 0.03 0.00 71 1014.9
20260506234037 50 42 0.0 3.0 0.00 0.03 0.00 71 1014.9
20260506233537 51 42 1.0 3.0 0.00 0.03 0.00 71 1014.8
20260506233048 51 42 1.0 3.0 0.00 0.03 0.00 71 1014.8
20260506232537 51 42 1.0 3.0 0.00 0.03 0.00 71 1014.8
20260506232037 51 272 1.0 3.0 0.00 0.03 0.00 71 1014.9
20260506231607 51 272 1.0 3.0 0.00 0.03 0.00 71 1014.9
20260506231037 52 0 0.0 3.0 0.00 0.03 0.00 71 1014.9
20260506230537 52 272 0.0 3.0 0.00 0.03 0.00 71 1014.9
20260506230106 52 272 1.0 3.0 0.00 0.03 0.00 72 1014.8
20260506225537 52 272 0.0 2.0 0.00 0.03 0.03 72 1014.9
20260506225037 52 272 1.0 2.0 0.00 0.03 0.03 72 1014.8
20260506224547 52 272 0.0 3.0 0.00 0.03 0.03 72 1014.9
20260506224036 52 272 0.0 3.0 0.00 0.03 0.03 72 1014.8
20260506223538 52 272 1.0 3.0 0.00 0.03 0.03 72 1014.8
20260506223045 52 272 0.0 2.0 0.00 0.03 0.03 73 1014.8
20260506222537 51 272 0.0 1.0 0.00 0.03 0.03 73 1014.7
20260506222040 51 0 0.0 0.0 0.00 0.03 0.03 72 1014.8
20260506221555 52 0 0.0 0.0 0.00 0.03 0.03 72 1014.7
20260506221040 52 0 0.0 0.0 0.00 0.03 0.03 72 1014.7
20260506220536 52 0 0.0 1.0 0.00 0.03 0.03 72 1014.6
20260506220110 52 0 0.0 1.0 0.00 0.03 0.03 71 1014.6
20260506215536 52 0 0.0 2.0 0.00 0.03 0.03 71 1014.6
20260506215037 52 0 0.0 2.0 0.00 0.03 0.03 71 1014.5
20260506214550 53 272 0.0 2.0 0.00 0.03 0.03 71 1014.6
20260506214037 53 0 0.0 2.0 0.00 0.03 0.03 71 1014.5
20260506213540 53 0 1.0 2.0 0.00 0.03 0.03 71 1014.5
20260506213103 53 272 0.0 2.0 0.00 0.03 0.03 71 1014.6
20260506212537 53 0 1.0 2.0 0.00 0.03 0.03 70 1014.6
20260506212037 53 0 0.0 2.0 0.00 0.03 0.03 70 1014.6
20260506211546 53 0 0.0 2.0 0.00 0.03 0.03 70 1014.6
20260506211037 53 0 0.0 3.0 0.00 0.03 0.03 70 1014.6
20260506210537 53 272 1.0 3.0 0.00 0.03 0.03 69 1014.5
20260506210053 53 272 1.0 2.0 0.00 0.03 0.03 69 1014.5
20260506205536 53 0 0.0 2.0 0.00 0.03 0.03 69 1014.6
20260506205036 53 272 1.0 3.0 0.00 0.03 0.03 69 1014.5
20260506204547 53 272 0.0 4.0 0.00 0.03 0.03 69 1014.4
20260506204037 54 272 2.0 4.0 0.00 0.03 0.03 68 1014.4
20260506203540 53 272 1.0 4.0 0.00 0.03 0.03 68 1014.4
20260506203045 54 272 1.0 4.0 0.00 0.03 0.03 68 1014.4
20260506202535 54 272 1.0 4.0 0.00 0.03 0.03 68 1014.3
20260506202037 54 272 1.0 5.0 0.00 0.03 0.03 67 1014.2
20260506201550 54 272 1.0 5.0 0.00 0.03 0.03 67 1014.2
20260506201035 54 272 2.0 5.0 0.00 0.03 0.03 67 1014.1
20260506200537 54 268 2.0 7.0 0.00 0.03 0.03 66 1014.1
20260506200046 54 262 2.0 7.0 0.00 0.03 0.03 66 1014.1
20260506195537 54 282 2.0 7.0 0.00 0.03 0.03 66 1014.1
20260506195037 54 254 3.0 7.0 0.00 0.03 0.03 66 1014.0
20260506194550 55 248 3.0 7.0 0.00 0.03 0.03 65 1013.9
20260506194036 55 265 2.0 6.0 0.00 0.03 0.03 66 1013.9
20260506193537 55 264 2.0 6.0 0.00 0.03 0.03 66 1013.9
20260506193046 55 243 2.0 6.0 0.00 0.03 0.03 66 1013.8
20260506192537 55 250 2.0 6.0 0.00 0.03 0.03 66 1013.8
20260506192037 55 249 3.0 8.0 0.00 0.03 0.03 66 1013.8
20260506191550 55 254 2.0 8.0 0.00 0.03 0.03 66 1013.8
20260506191038 55 258 2.0 8.0 0.00 0.03 0.03 66 1013.8
20260506190540 56 269 2.0 8.0 0.00 0.03 0.03 66 1013.6
20260506190046 56 250 4.0 8.0 0.00 0.03 0.03 65 1013.6
20260506185537 56 257 3.0 8.0 0.00 0.03 0.03 65 1013.6
20260506185035 56 248 3.0 8.0 0.00 0.03 0.03 64 1013.6
20260506184559 56 228 3.0 8.0 0.00 0.03 0.03 64 1013.7
20260506184037 56 259 3.0 8.0 0.00 0.03 0.03 64 1013.7
20260506183539 56 221 4.0 10.0 0.00 0.03 0.03 63 1013.6
20260506183045 57 198 5.0 10.0 0.00 0.03 0.03 62 1013.5
20260506182536 57 229 2.0 9.0 0.00 0.03 0.03 62 1013.5
20260506182037 57 229 4.0 9.0 0.00 0.03 0.03 61 1013.4
20260506181553 57 259 4.0 7.0 0.00 0.03 0.03 61 1013.4
20260506181037 58 215 2.0 6.0 0.00 0.03 0.03 60 1013.3
20260506180537 58 213 1.0 6.0 0.00 0.03 0.03 59 1013.4
20260506180057 59 209 0.0 1.0 0.00 0.03 0.03 49 1013.3
20260506175536 59 0 0.0 4.0 0.00 0.03 0.03 48 1013.2
20260506175040 59 0 0.0 4.0 0.00 0.03 0.03 48 1013.1
20260506174544 59 0 0.0 4.0 0.00 0.03 0.03 48 1013.1
20260506174037 59 327 0.0 3.0 0.00 0.03 0.03 49 1013.1
20260506173537 59 0 0.0 7.0 0.00 0.03 0.03 49 1013.0
20260506173050 59 0 0.0 7.0 0.00 0.03 0.03 49 1013.1
20260506172537 59 43 1.0 7.0 0.00 0.03 0.03 49 1013.1
20260506172040 59 0 2.0 6.0 0.00 0.03 0.03 48 1013.0
20260506171556 59 0 0.0 5.0 0.00 0.03 0.03 48 1013.1
20260506171037 59 0 0.0 5.0 0.00 0.03 0.03 48 1013.0
20260506170536 59 340 0.0 9.0 0.00 0.03 0.03 47 1013.0
20260506170050 59 0 0.0 9.0 0.00 0.03 0.03 47 1013.0
20260506165537 59 46 0.0 6.0 0.00 0.03 0.03 47 1013.0
20260506165037 59 0 0.0 6.0 0.00 0.03 0.03 46 1013.0
20260506164551 60 360 1.0 6.0 0.00 0.03 0.03 46 1013.0
20260506164037 60 0 1.0 13.0 0.00 0.03 0.03 47 1013.0
20260506163536 60 0 0.0 13.0 0.00 0.03 0.03 46 1013.0
20260506163048 60 31 3.0 13.0 0.00 0.03 0.03 47 1013.0
20260506162537 60 16 2.0 9.0 0.00 0.03 0.03 47 1013.0
20260506162038 60 34 3.0 9.0 0.00 0.03 0.03 46 1013.1
20260506161550 60 0 2.0 9.0 0.00 0.03 0.03 47 1013.0
20260506161038 60 41 2.0 9.0 0.00 0.03 0.03 45 1013.0
20260506160538 60 0 0.0 9.0 0.00 0.03 0.03 45 1013.0
20260506160101 60 0 0.0 9.0 0.00 0.03 0.03 44 1012.9
20260506155537 60 0 0.0 9.0 0.00 0.03 0.03 44 1012.9
20260506155037 60 0 1.0 9.0 0.00 0.03 0.03 44 1012.9
20260506154552 60 0 1.0 8.0 0.00 0.03 0.03 44 1013.0
20260506154038 60 38 2.0 8.0 0.00 0.03 0.03 43 1013.0
20260506153537 60 0 3.0 9.0 0.00 0.03 0.03 42 1013.0
20260506153047 60 0 3.0 9.0 0.00 0.03 0.03 43 1012.9
20260506152536 60 321 3.0 6.0 0.00 0.03 0.03 43 1013.0
20260506152037 60 5 2.0 10.0 0.00 0.03 0.03 44 1013.0
20260506151545 60 317 4.0 10.0 0.00 0.03 0.03 44 1013.0
20260506151036 60 334 4.0 9.0 0.00 0.03 0.03 44 1013.0
20260506150537 60 36 3.0 9.0 0.00 0.03 0.03 44 1013.0
20260506150054 60 11 4.0 9.0 0.00 0.03 0.03 43 1013.0
20260506145537 60 360 2.0 8.0 0.00 0.03 0.03 43 1013.1
20260506145039 60 67 3.0 7.0 0.00 0.03 0.03 42 1013.1
20260506144559 60 46 3.0 7.0 0.00 0.03 0.03 43 1013.2
20260506144037 60 48 2.0 7.0 0.00 0.03 0.03 42 1013.1
20260506143537 60 12 3.0 8.0 0.00 0.03 0.03 42 1013.1
20260506143046 60 9 2.0 9.0 0.00 0.03 0.03 43 1013.2
20260506142536 60 360 3.0 9.0 0.00 0.03 0.03 43 1013.2
20260506142036 60 315 4.0 11.0 0.00 0.03 0.03 44 1013.3
20260506141553 60 344 5.0 11.0 0.00 0.03 0.03 42 1013.2
20260506141037 60 26 5.0 10.0 0.00 0.03 0.03 42 1013.3
20260506140536 60 36 4.0 9.0 0.00 0.03 0.03 43 1013.3
20260506140052 60 9 4.0 9.0 0.00 0.03 0.03 42 1013.2
20260506135536 61 43 4.0 7.0 0.00 0.03 0.03 42 1013.3
20260506135036 61 60 2.0 6.0 0.00 0.03 0.03 41 1013.2
20260506134549 61 57 2.0 7.0 0.00 0.03 0.03 42 1013.3
20260506134037 61 40 3.0 10.0 0.00 0.03 0.03 43 1013.4
20260506133538 61 306 4.0 11.0 0.00 0.03 0.03 42 1013.3
20260506133049 62 302 5.0 11.0 0.00 0.03 0.03 41 1013.4
20260506132541 61 0 2.0 8.0 0.00 0.03 0.03 43 1013.3
20260506132037 61 321 4.0 8.0 0.00 0.03 0.03 43 1013.4
20260506131557 61 271 3.0 10.0 0.00 0.03 0.03 42 1013.3
20260506131037 61 24 4.0 11.0 0.00 0.03 0.03 43 1013.4
20260506130537 60 44 3.0 11.0 0.00 0.03 0.03 42 1013.4
20260506130052 61 27 6.0 13.0 0.00 0.03 0.03 43 1013.4
20260506125536 61 96 4.0 13.0 0.00 0.03 0.03 43 1013.4
20260506125036 61 50 5.0 14.0 0.00 0.03 0.03 44 1013.4
20260506124550 61 352 5.0 14.0 0.00 0.03 0.03 43 1013.3
20260506124038 60 360 5.0 14.0 0.00 0.03 0.03 45 1013.3
20260506123538 61 291 3.0 11.0 0.00 0.03 0.03 44 1013.4
20260506123054 61 33 3.0 11.0 0.00 0.03 0.03 47 1013.4
20260506122538 61 69 5.0 11.0 0.00 0.03 0.03 45 1013.3
20260506122039 61 57 5.0 12.0 0.00 0.03 0.03 45 1013.5
20260506121550 61 58 3.0 12.0 0.00 0.03 0.03 46 1013.4
20260506121039 60 46 5.0 11.0 0.00 0.03 0.03 47 1013.5
20260506120537 60 51 4.0 9.0 0.00 0.03 0.03 48 1013.6
20260506120053 59 19 4.0 9.0 0.00 0.03 0.03 48 1013.5
20260506115537 59 35 2.0 9.0 0.00 0.03 0.03 48 1013.6
20260506115036 60 355 3.0 11.0 0.00 0.03 0.03 47 1013.6
20260506114554 60 329 4.0 11.0 0.00 0.03 0.03 48 1013.6
20260506114037 60 90 3.0 9.0 0.00 0.03 0.03 47 1013.6
20260506113537 60 81 3.0 9.0 0.00 0.03 0.03 46 1013.6
20260506113053 60 36 3.0 9.0 0.00 0.03 0.03 46 1013.7
20260506112537 60 90 3.0 9.0 0.00 0.03 0.03 48 1013.6
20260506112036 60 34 4.0 10.0 0.00 0.03 0.03 48 1013.7
20260506111552 60 32 4.0 10.0 0.00 0.03 0.03 48 1013.7
20260506111037 59 53 4.0 11.0 0.00 0.03 0.03 48 1013.7
20260506110536 59 360 6.0 11.0 0.00 0.03 0.03 47 1013.7
20260506110048 60 340 6.0 11.0 0.00 0.03 0.03 47 1013.7
20260506105536 59 36 4.0 11.0 0.00 0.03 0.03 51 1013.7
20260506105037 59 44 5.0 13.0 0.00 0.03 0.03 52 1013.7
20260506104555 58 113 5.0 13.0 0.00 0.03 0.03 55 1013.7
20260506104037 57 11 2.0 10.0 0.00 0.03 0.03 59 1013.9
20260506103537 56 10 2.0 10.0 0.00 0.03 0.03 59 1013.8
20260506103054 56 355 5.0 10.0 0.00 0.03 0.03 59 1013.8
20260506102537 56 346 3.0 9.0 0.00 0.03 0.03 60 1013.8
20260506102037 55 345 3.0 11.0 0.00 0.03 0.03 62 1013.8
20260506101550 54 32 6.0 11.0 0.00 0.03 0.03 62 1013.8
20260506101037 54 35 5.0 10.0 0.00 0.03 0.03 62 1013.9
20260506100536 54 38 4.0 9.0 0.00 0.03 0.03 62 1013.8
20260506095537 54 59 4.0 9.0 0.00 0.03 0.03 62 1013.8
20260506095037 54 83 4.0 13.0 0.00 0.03 0.03 62 1013.9
20260506094543 54 18 5.0 13.0 0.00 0.03 0.03 62 1013.9
20260506094036 53 44 5.0 11.0 0.00 0.03 0.03 63 1014.0
20260506093536 53 58 4.0 10.0 0.00 0.03 0.03 65 1013.8
20260506093047 53 57 4.0 11.0 0.00 0.03 0.03 65 1013.8
20260506092536 52 35 3.0 11.0 0.00 0.03 0.03 68 1013.8
20260506092040 52 51 3.0 6.0 0.00 0.03 0.03 69 1013.9
20260506091549 52 344 2.0 6.0 0.00 0.03 0.03 69 1013.8
20260506091034 52 30 2.0 6.0 0.00 0.03 0.03 69 1013.9
20260506090534 51 21 2.0 7.0 0.00 0.03 0.03 71 1013.8
20260506090050 51 28 3.0 11.0 0.00 0.03 0.03 72 1013.9
20260506085535 51 44 4.0 11.0 0.00 0.03 0.03 72 1013.9
20260506085037 51 38 6.0 11.0 0.00 0.03 0.03 72 1013.9
20260506084549 50 342 3.0 11.0 0.00 0.03 0.03 73 1013.9
20260506084037 50 343 4.0 11.0 0.00 0.03 0.03 74 1013.9
20260506083536 50 50 5.0 11.0 0.00 0.03 0.03 75 1014.0
20260506083054 50 348 4.0 10.0 0.00 0.03 0.03 75 1013.9
20260506082537 50 30 4.0 11.0 0.00 0.03 0.03 75 1013.9
20260506082036 50 46 5.0 11.0 0.00 0.03 0.03 76 1013.8
20260506081550 50 39 3.0 10.0 0.00 0.03 0.03 77 1013.9
20260506081036 49 24 2.0 8.0 0.00 0.03 0.03 78 1013.7
20260506080537 49 57 3.0 8.0 0.00 0.03 0.03 78 1013.7
20260506073047 49 50 1.0 5.0 0.00 0.03 0.03 81 1013.6
20260506072535 49 0 1.0 6.0 0.00 0.03 0.03 81 1013.5
20260506072037 49 0 2.0 7.0 0.00 0.03 0.03 81 1013.5
20260506071558 49 46 2.0 7.0 0.00 0.03 0.03 81 1013.5
20260506071036 49 13 3.0 9.0 0.00 0.03 0.03 81 1013.4
20260506070536 49 67 2.0 9.0 0.00 0.03 0.03 82 1013.4
20260506062039 49 48 2.0 9.0 0.00 0.03 0.03 83 1013.1
20260506061546 49 30 2.0 9.0 0.00 0.03 0.03 83 1013.2
20260506061039 49 34 3.0 9.0 0.00 0.03 0.03 83 1013.1
20260506060534 49 52 3.0 8.0 0.00 0.03 0.03 83 1013.1
20260506051036 50 27 0.0 5.0 0.03 0.03 0.03 84 1012.9
20260506050538 49 0 1.0 5.0 0.03 0.03 0.03 83 1012.9
20260506045038 50 28 1.0 5.0 0.02 0.02 0.02 82 1012.8
20260506044550 50 0 2.0 5.0 0.02 0.02 0.02 82 1012.7
20260506044036 50 27 3.0 7.0 0.01 0.01 0.01 81 1012.7
20260506043536 50 47 2.0 10.0 0.01 0.01 0.01 80 1012.7
20260506043050 51 51 4.0 10.0 0.00 0.00 0.00 78 1012.5
20260506042537 51 69 4.0 11.0 0.00 0.00 0.00 77 1012.5
20260506042036 51 44 3.0 11.0 0.00 0.00 0.00 75 1012.6
20260506041551 51 51 2.0 10.0 0.00 0.00 0.00 75 1012.5
20260506041036 51 40 3.0 10.0 0.00 0.00 0.00 74 1012.6
20260506040534 51 35 3.0 9.0 0.00 0.00 0.00 73 1012.6
20260506040048 52 26 3.0 10.0 0.00 0.00 0.00 73 1012.5
20260506035537 52 21 2.0 11.0 0.00 0.00 0.00 73 1012.5
20260506035034 52 33 3.0 11.0 0.00 0.00 0.00 73 1012.4
20260506034547 52 44 4.0 11.0 0.00 0.00 0.00 73 1012.4
20260506034038 52 78 4.0 10.0 0.00 0.00 0.00 73 1012.4
20260506033537 52 13 4.0 12.0 0.00 0.00 0.00 73 1012.5
20260506033047 52 16 4.0 12.0 0.00 0.00 0.00 73 1012.5
20260506032537 52 47 5.0 11.0 0.00 0.00 0.00 72 1012.5
20260506032040 52 42 3.0 11.0 0.00 0.00 0.00 73 1012.5
20260506031546 52 44 4.0 12.0 0.00 0.00 0.00 72 1012.5
20260506031037 52 46 5.0 12.0 0.00 0.00 0.00 73 1012.6
20260506030537 52 360 4.0 12.0 0.00 0.00 0.00 73 1012.6
20260506025536 52 5 4.0 11.0 0.00 0.00 0.00 73 1012.5
20260506025036 53 63 3.0 9.0 0.00 0.00 0.00 73 1012.5
20260506024555 53 346 4.0 9.0 0.00 0.00 0.00 73 1012.5
20260506024037 53 348 3.0 8.0 0.00 0.00 0.00 73 1012.5
20260506023537 53 11 4.0 8.0 0.00 0.00 0.00 73 1012.5
20260506023047 53 46 2.0 10.0 0.00 0.00 0.00 73 1012.5
20260506022537 53 59 3.0 10.0 0.00 0.00 0.00 73 1012.5
20260506022037 53 27 4.0 10.0 0.00 0.00 0.00 73 1012.5
20260506021547 53 53 3.0 9.0 0.00 0.00 0.00 73 1012.5
20260506021036 53 37 2.0 8.0 0.00 0.00 0.00 73 1012.5
20260506020536 53 61 3.0 8.0 0.00 0.00 0.00 73 1012.5
20260506020049 53 34 3.0 7.0 0.00 0.00 0.00 73 1012.5
20260506015538 53 38 2.0 6.0 0.00 0.00 0.00 73 1012.4
20260506015037 53 32 2.0 10.0 0.00 0.00 0.00 73 1012.5
20260506014557 53 28 3.0 10.0 0.00 0.00 0.00 73 1012.5
20260506014037 53 59 2.0 8.0 0.00 0.00 0.00 73 1012.4
20260506013536 53 17 2.0 8.0 0.00 0.00 0.00 73 1012.4
20260506013051 53 14 2.0 6.0 0.00 0.00 0.00 73 1012.5
20260506012538 53 17 2.0 6.0 0.00 0.00 0.00 73 1012.5
20260506012036 53 13 2.0 6.0 0.00 0.00 0.00 73 1012.5
20260506011546 53 34 2.0 10.0 0.00 0.00 0.00 72 1012.4
20260506011037 53 30 3.0 10.0 0.00 0.00 0.00 72 1012.5
20260506010534 53 336 3.0 9.0 0.00 0.00 0.00 72 1012.5
20260506010053 53 346 3.0 9.0 0.00 0.00 0.00 72 1012.5
20260506005536 53 5 3.0 10.0 0.00 0.00 0.00 72 1012.6
20260506005037 53 15 2.0 10.0 0.00 0.00 0.00 72 1012.5
20260506004553 53 18 3.0 8.0 0.00 0.00 0.00 72 1012.5